Weather Roundup
Issued by NWS Springfield, MO

Home | Current Version | Previous Version | Text Only | Print | Product List | Glossary On
Versions: 1 2 3 4 5 6 7 8 9 10 11 12 13 14 15 16 17 18 19 20 21 22 23 24 25 26 27 28 29 30 31 32 33 34 35 36 37 38 39 40 41 42 43 44 45 46 47 48 49 50
000
NZUS99 KSGF 030707
HRRSGF

HOURLY WEATHER
NATIONAL WEATHER SERVICE SPRINGFIELD MO
200 AM CDT SUN MAY 03 2015

......SGF CWA......

CITY           SKY/WX    TMP DP  RH WIND       PRES   REMARKS
SPRINGFIELD    PTCLDY    60  49  66 S10       29.98S
JOPLIN         CLEAR     63  51  65 S10       29.96S
WEST PLAINS    MOCLDY    63  43  48 S6        30.04S
ROLLA          MOCLDY    64  42  44 S12       29.98F
OSAGE BEACH    PTCLDY    61  45  55 S6        29.97S
BRANSON        CLEAR     63  46  55 CALM      30.02S

......SURROUNDING SGF CWA......

CITY           SKY/WX    TMP DP  RH WIND       PRES   REMARKS
CHANUTE        PTCLDY    64  53  67 S13       29.91F
PARSONS        PTCLDY    64  54  69 S8        29.93F
COFFEYVILLE    CLEAR     61  53  75 S7        29.92F
EMPORIA        PTCLDY    62  53  72 S14       29.87S
GROVE OK       CLEAR     63  52  67 S3        29.98S
ROGERS AR      PTCLDY    59  50  72 S7        30.01S
SILOAM SPRINGS CLEAR     59  46  63 S5        30.01S
HARRISON AR    MOCLDY    58  48  69 S3        30.03S
NEAR YELLVILLE CLEAR     61  45  55 CALM      30.01S

......KANSAS AND MISSOURI......

CITY           SKY/WX    TMP DP  RH WIND       PRES   REMARKS
KANSAS CTY INT CLOUDY    66  52  60 S15       29.88S
DOWNTOWN KC    CLOUDY    69  52  54 S13       29.88S
COLUMBIA       MOCLDY    62  48  60 S9        29.96F
SEDALIA        CLOUDY    59  50  72 S7        29.95S
ST JOSEPH      CLOUDY    66  54  65 S10       29.85F
ST LOUIS       CLOUDY    68  43  40 S8        30.00S
SPIRIT OF STL  CLOUDY    62  46  55 CALM      29.99R
KIRKSVILLE     MOCLDY    54  51  90 S6        29.93F
WICHITA        MOCLDY    65  55  70 S15       29.86S
TOPEKA         MOCLDY    65  53  65 S5        29.86S
OLATHE         CLOUDY    65  53  65 S9        29.90R

......TENNESSEE......

CITY           SKY/WX    TMP DP  RH WIND       PRES   REMARKS
MEMPHIS        CLEAR     57  46  66 S5        30.05F
NASHVILLE      CLEAR     54  49  83 CALM      30.08S

......ARKANSAS.......

CITY           SKY/WX    TMP DP  RH WIND       PRES   REMARKS
FAYETTEVILLE   CLEAR     52  51  97 CALM      30.01F
FT SMITH       CLEAR     61  52  72 E5        29.99S
LITTLE ROCK    CLEAR     59  47  64 CALM      30.03F

......OKLAHOMA.......

CITY           SKY/WX    TMP DP  RH WIND       PRES   REMARKS
TULSA          CLEAR     68  52  56 S15       29.92F
PONCA CITY     CLOUDY    68  57  68 S9G18     29.90S
MCALESTER      MOCLDY    65  52  62 SE6       29.98S
OKLAHOMA CITY  MOCLDY    64  56  75 S12       29.93S

......IOWA............

CITY           SKY/WX    TMP DP  RH WIND       PRES   REMARKS
DES MOINES     CLOUDY    60  49  66 S8        29.84S
QUAD CITIES    CLOUDY    59  47  64 E3        29.93F

......ILLINOIS........

CITY           SKY/WX    TMP DP  RH WIND       PRES   REMARKS
QUINCY         PTCLDY    61  47  59 S9        29.95F
CHICAGO        MOCLDY    60  40  47 SW5       29.97S




USA.gov is the U.S. government's official web portal to all federal, state and local government web resources and services.